DW0538 Weather Reports


Display with metric or nautical units.
time (UTC)temp
F
wind
direction
speed
MPH
gust
MPH
rain 1hr
in
rain 24hr
in
rain mn
in
humidity
%
barometer
mb
20260510142307 56 322 0.0 2.0 0.00 0.15 0.00 95 1013.0
20260510141821 56 322 0.0 2.0 0.00 0.15 0.00 95 1013.1
20260510141328 55 321 0.0 0.0 0.00 0.15 0.00 96 1013.0
20260510140812 55 298 0.0 1.0 0.00 0.15 0.00 95 1013.0
20260510140313 55 261 0.0 1.0 0.00 0.15 0.00 95 1013.0
20260510135834 55 240 0.0 0.0 0.00 0.15 0.00 96 1012.9
20260510135323 55 240 0.0 0.0 0.00 0.15 0.00 96 1012.9
20260510134827 55 290 0.0 1.0 0.00 0.15 0.00 96 1012.9
20260510134311 55 304 0.0 1.0 0.00 0.15 0.00 96 1012.9
20260510133817 54 295 0.0 0.0 0.00 0.15 0.00 96 1012.9
20260510132818 54 273 0.0 0.0 0.00 0.15 0.00 96 1012.9
20260510131818 54 269 0.0 0.0 0.00 0.15 0.00 96 1012.8
20260510131331 54 313 0.0 1.0 0.00 0.15 0.00 96 1012.9
20260510130833 54 313 0.0 1.0 0.00 0.15 0.00 96 1012.9
20260510130313 53 36 0.0 0.0 0.00 0.15 0.00 96 1012.8
20260510125318 53 36 0.0 0.0 0.00 0.15 0.00 96 1012.5
20260510124825 53 36 0.0 0.0 0.00 0.15 0.00 96 1012.4
20260510124313 53 36 0.0 0.0 0.00 0.15 0.00 96 1012.2
20260510123817 53 36 0.0 0.0 0.00 0.15 0.00 96 1012.5
20260510122817 53 36 0.0 0.0 0.00 0.15 0.00 96 1012.3
20260510121820 52 36 0.0 1.0 0.00 0.15 0.00 96 1012.5
20260510121325 52 36 0.0 0.0 0.00 0.15 0.00 96 1012.5
20260510120816 52 36 0.0 0.0 0.00 0.15 0.00 96 1012.4
20260510115816 52 36 0.0 0.0 0.00 0.15 0.00 95 1012.1
20260510115331 52 36 0.0 0.0 0.00 0.15 0.00 96 1012.1
20260510114321 52 36 0.0 0.0 0.00 0.15 0.00 96 1012.2
20260510113829 52 36 0.0 0.0 0.00 0.15 0.00 96 1012.1
20260510112813 52 36 0.0 0.0 0.00 0.15 0.00 96 1012.0
20260510112322 52 36 0.0 0.0 0.00 0.15 0.00 96 1012.0
20260510111833 51 36 0.0 1.0 0.00 0.15 0.00 96 1011.9
20260510111322 51 36 0.0 1.0 0.00 0.15 0.00 96 1012.0
20260510110827 51 36 0.0 0.0 0.00 0.15 0.00 96 1011.9
20260510110313 51 36 0.0 0.0 0.00 0.15 0.00 96 1011.7
20260510105817 50 36 0.0 0.0 0.00 0.15 0.00 96 1011.6
20260510105325 50 36 0.0 0.0 0.00 0.15 0.00 95 1011.6
20260510104809 50 36 0.0 0.0 0.00 0.15 0.00 95 1011.6
20260510104325 50 36 0.0 0.0 0.00 0.15 0.00 95 1011.5
20260510103834 50 36 0.0 0.0 0.00 0.15 0.00 95 1011.4
20260510102827 50 36 0.0 0.0 0.00 0.15 0.00 95 1011.5
20260510102313 50 36 0.0 0.0 0.00 0.15 0.00 95 1011.4
20260510101832 50 36 0.0 0.0 0.00 0.15 0.00 95 1011.3
20260510101322 50 36 0.0 0.0 0.00 0.15 0.00 95 1011.4
20260510100833 51 36 0.0 0.0 0.00 0.15 0.00 95 1011.5
20260510095821 51 36 0.0 0.0 0.00 0.15 0.00 95 1011.4
20260510095310 51 36 0.0 0.0 0.00 0.15 0.00 95 1011.5
20260510094308 51 36 0.0 0.0 0.00 0.15 0.00 95 1011.6
20260510093308 51 36 0.0 1.0 0.00 0.15 0.00 95 1011.5
20260510092822 50 36 0.0 0.0 0.00 0.15 0.00 95 1011.4
20260510092318 51 36 0.0 0.0 0.00 0.15 0.00 95 1011.4
20260510091813 50 36 0.0 0.0 0.00 0.15 0.00 95 1011.4
20260510091327 51 36 0.0 0.0 0.00 0.15 0.00 95 1011.5
20260510090814 51 36 0.0 0.0 0.00 0.15 0.00 95 1011.6
20260510085831 51 36 0.0 0.0 0.00 0.15 0.00 95 1011.8
20260510085322 51 36 0.0 0.0 0.00 0.15 0.00 95 1012.0
20260510084825 51 36 0.0 0.0 0.00 0.15 0.00 95 1012.0
20260510084308 51 36 0.0 0.0 0.00 0.15 0.00 95 1012.1
20260510083825 51 36 0.0 0.0 0.00 0.15 0.00 95 1012.1
20260510083331 51 36 0.0 0.0 0.00 0.15 0.00 95 1011.8
20260510082826 51 36 0.0 1.0 0.00 0.15 0.00 95 1011.8
20260510082315 51 13 0.0 1.0 0.00 0.15 0.00 95 1011.8
20260510080814 52 17 0.0 0.0 0.00 0.15 0.00 95 1011.6
20260510080314 52 18 0.0 0.0 0.00 0.15 0.00 95 1011.7
20260510075829 52 158 0.0 0.0 0.00 0.15 0.00 95 1011.1
20260510074811 52 158 0.0 0.0 0.00 0.15 0.00 95 1010.9
20260510074331 52 158 0.0 0.0 0.00 0.15 0.00 95 1010.9
20260510073310 52 158 0.0 0.0 0.00 0.15 0.00 95 1010.9
20260510072825 51 158 0.0 0.0 0.00 0.15 0.00 95 1010.9
20260510072315 51 158 0.0 0.0 0.00 0.15 0.00 95 1010.8
20260510071815 51 158 0.0 0.0 0.00 0.15 0.00 95 1010.8
20260510071331 51 158 0.0 0.0 0.00 0.15 0.00 95 1010.9
20260510070823 51 158 0.0 0.0 0.00 0.15 0.00 95 1010.9
20260510070319 51 158 0.0 0.0 0.00 0.15 0.00 95 1010.9
20260510065829 51 158 0.0 0.0 0.00 0.15 0.00 95 1010.9
20260510065322 51 158 0.0 0.0 0.00 0.15 0.00 95 1011.0
20260510064815 51 158 0.0 0.0 0.00 0.15 0.00 95 1011.0
20260510064309 51 158 0.0 0.0 0.00 0.15 0.00 95 1011.1
20260510063829 51 158 0.0 0.0 0.00 0.15 0.00 95 1011.2
20260510063319 51 158 0.0 0.0 0.00 0.15 0.00 95 1011.1
20260510062818 51 158 0.0 0.0 0.00 0.15 0.00 95 1011.1
20260510061828 51 158 0.0 0.0 0.00 0.15 0.00 95 1010.9
20260510061309 52 158 0.0 0.0 0.00 0.15 0.00 95 1010.8
20260510060813 52 158 0.0 0.0 0.00 0.15 0.00 95 1010.7
20260510060326 52 158 0.0 0.0 0.00 0.15 0.00 95 1010.6
20260510055816 51 158 0.0 0.0 0.00 0.15 0.00 95 1010.7
20260510055313 51 158 0.0 0.0 0.00 0.15 0.00 95 1010.7
20260510054823 51 158 0.0 0.0 0.00 0.15 0.00 95 1010.8
20260510054322 51 158 0.0 0.0 0.00 0.15 0.00 95 1010.8
20260510053811 51 158 0.0 0.0 0.00 0.15 0.00 95 1010.8
20260510052809 51 158 0.0 0.0 0.00 0.15 0.00 95 1010.8
20260510052316 51 158 0.0 0.0 0.00 0.15 0.00 95 1010.8
20260510051829 51 158 0.0 0.0 0.00 0.15 0.00 95 1010.9
20260510051317 51 158 0.0 0.0 0.00 0.15 0.00 95 1010.8
20260510050827 51 158 0.0 0.0 0.00 0.15 0.00 95 1010.8
20260510050322 51 158 0.0 0.0 0.00 0.15 0.00 95 1011.0
20260510045333 50 158 0.0 0.0 0.00 0.15 0.00 95 1010.9
20260510044825 50 158 0.0 0.0 0.00 0.15 0.00 95 1011.0
20260510044323 50 158 0.0 0.0 0.00 0.15 0.00 94 1011.0
20260510043814 50 158 0.0 0.0 0.00 0.15 0.00 94 1011.0
20260510043312 50 158 0.0 0.0 0.00 0.15 0.00 94 1011.1
20260510042817 50 158 0.0 0.0 0.00 0.15 0.00 94 1011.0
20260510042315 50 158 0.0 0.0 0.00 0.15 0.16 94 1011.1
20260510041826 50 158 0.0 0.0 0.00 0.15 0.16 94 1011.1
20260510040820 50 158 0.0 0.0 0.00 0.15 0.16 94 1011.1
20260510040318 50 158 0.0 0.0 0.00 0.15 0.16 94 1011.0
20260510035829 50 158 0.0 0.0 0.00 0.15 0.16 94 1011.0
20260510035317 50 158 0.0 0.0 0.00 0.15 0.16 94 1011.0
20260510034836 50 158 0.0 0.0 0.00 0.15 0.16 94 1011.0
20260510034333 50 158 0.0 0.0 0.00 0.15 0.16 94 1010.9
20260510033818 50 158 0.0 0.0 0.00 0.15 0.16 93 1010.7
20260510033327 50 158 0.0 0.0 0.00 0.15 0.16 94 1010.7
20260510032817 50 158 0.0 0.0 0.00 0.15 0.16 94 1010.7
20260510032314 51 158 0.0 0.0 0.00 0.15 0.16 94 1010.7
20260510031827 51 158 0.0 0.0 0.00 0.15 0.16 94 1010.8
20260510031322 51 158 0.0 0.0 0.00 0.15 0.16 94 1010.6
20260510030829 51 158 0.0 0.0 0.00 0.15 0.16 94 1010.7
20260510030312 51 158 0.0 0.0 0.00 0.15 0.16 94 1010.6
20260510024825 51 158 0.0 0.0 0.00 0.15 0.16 94 1010.6
20260510024331 50 158 0.0 0.0 0.00 0.15 0.16 93 1010.7
20260510023816 50 158 0.0 0.0 0.01 0.15 0.16 94 1010.7
20260510023323 50 158 0.0 0.0 0.01 0.15 0.16 94 1010.7
20260510022311 50 158 0.0 0.0 0.01 0.15 0.16 93 1010.8
20260510021321 50 158 0.0 0.0 0.01 0.15 0.16 93 1010.9
20260510020323 51 158 0.0 0.0 0.01 0.15 0.16 93 1010.9
20260510015827 51 158 0.0 0.0 0.01 0.15 0.16 93 1010.9
20260510015331 51 158 0.0 0.0 0.01 0.15 0.16 93 1010.7
20260510014823 51 158 0.0 0.0 0.01 0.15 0.16 93 1010.7
20260510014325 51 158 0.0 0.0 0.01 0.15 0.16 93 1010.7
20260510013830 51 158 0.0 0.0 0.00 0.14 0.15 93 1010.5
20260510013315 52 158 0.0 0.0 0.00 0.14 0.15 93 1010.6
20260510011829 52 158 0.0 0.0 0.00 0.14 0.15 93 1010.6
20260510011309 52 158 0.0 0.0 0.00 0.14 0.15 92 1010.4
20260510010332 53 158 0.0 0.0 0.00 0.14 0.15 92 1010.5
20260510005833 53 158 0.0 0.0 0.00 0.14 0.15 92 1010.4
20260510005320 53 158 0.0 0.0 0.00 0.14 0.15 92 1010.3
20260510004822 53 158 0.0 0.0 0.00 0.14 0.15 92 1010.2
20260510004318 53 158 0.0 0.0 0.00 0.14 0.15 92 1010.2
20260510003818 53 158 0.0 0.0 0.00 0.14 0.15 92 1010.1
20260510003327 54 158 0.0 0.0 0.00 0.14 0.15 92 1010.1
20260510002832 54 158 0.0 0.0 0.00 0.14 0.15 92 1010.0
20260510002340 54 158 0.0 0.0 0.00 0.14 0.15 92 1009.9
20260510001820 54 158 0.0 0.0 0.00 0.14 0.15 92 1009.9
20260510001323 54 158 0.0 0.0 0.00 0.14 0.15 92 1010.0
20260510000821 54 158 0.0 0.0 0.00 0.14 0.15 92 1010.1
20260510000329 55 158 0.0 0.0 0.00 0.14 0.15 92 1010.2
20260509235311 55 158 0.0 0.0 0.00 0.14 0.15 92 1009.9
20260509234811 55 158 0.0 0.0 0.00 0.14 0.15 92 1009.9
20260509234320 55 158 0.0 0.0 0.00 0.14 0.15 92 1010.0
20260509233825 55 158 0.0 0.0 0.00 0.14 0.15 92 1009.9
20260509233320 55 158 0.0 0.0 0.00 0.14 0.15 92 1009.8
20260509232831 55 158 0.0 0.0 0.00 0.14 0.15 92 1009.7
20260509231333 56 158 0.0 0.0 0.00 0.14 0.15 92 1009.8
20260509230834 56 158 0.0 0.0 0.00 0.14 0.15 93 1009.7
20260509230317 56 158 0.0 0.0 0.00 0.14 0.15 93 1009.8
20260509225815 56 158 0.0 0.0 0.00 0.14 0.15 93 1009.8
20260509224821 55 158 0.0 0.0 0.00 0.14 0.15 92 1009.8
20260509223817 55 158 0.0 0.0 0.02 0.14 0.15 93 1010.1
20260509223307 55 158 0.0 0.0 0.04 0.14 0.15 93 1010.3
20260509222309 55 158 0.0 0.0 0.07 0.14 0.15 92 1010.2
20260509221819 55 158 0.0 0.0 0.08 0.14 0.15 92 1010.2
20260509221309 55 158 0.0 0.0 0.09 0.14 0.15 92 1010.2
20260509220323 55 126 0.0 0.0 0.11 0.14 0.15 93 1010.2
20260509215834 55 125 0.0 0.0 0.12 0.14 0.15 92 1010.1
20260509215327 55 125 0.0 0.0 0.12 0.14 0.15 92 1010.1
20260509214816 55 125 0.0 0.0 0.12 0.14 0.15 92 1010.4
20260509213315 55 30 0.0 1.0 0.09 0.10 0.11 91 1010.6
20260509212830 55 30 0.0 0.0 0.08 0.09 0.10 91 1010.5
20260509212325 55 30 0.0 0.0 0.06 0.07 0.08 92 1010.2
20260509210323 56 355 0.0 0.0 0.02 0.03 0.04 90 1010.4
20260509204824 56 355 0.0 0.0 0.01 0.02 0.03 90 1010.2
20260509204314 56 355 0.0 0.0 0.01 0.02 0.03 90 1009.8
20260509202328 56 355 0.0 0.0 0.01 0.01 0.02 89 1010.1
20260509201822 56 317 0.0 0.0 0.01 0.01 0.02 89 1010.2
20260509201323 56 317 0.0 0.0 0.01 0.01 0.02 89 1010.3
20260509200817 56 317 0.0 0.0 0.01 0.01 0.02 89 1010.4
20260509195808 56 317 0.0 0.0 0.01 0.01 0.02 88 1010.6
20260509194321 56 317 0.0 0.0 0.01 0.01 0.02 87 1011.0
20260509193811 57 317 0.0 0.0 0.01 0.01 0.02 87 1011.0
20260509193323 57 317 0.0 0.0 0.01 0.01 0.02 86 1011.1
20260509192818 57 321 0.0 3.0 0.00 0.00 0.01 85 1010.8
20260509192309 57 323 0.0 4.0 0.00 0.00 0.01 84 1011.0
20260509191822 58 355 0.0 4.0 0.00 0.00 0.01 84 1010.9
20260509191316 58 285 0.0 0.0 0.00 0.00 0.01 85 1010.8
20260509190327 58 286 0.0 0.0 0.00 0.00 0.01 84 1010.6
20260509185313 57 286 0.0 0.0 0.00 0.00 0.01 84 1010.5
20260509184827 57 286 0.0 0.0 0.00 0.00 0.01 84 1010.8
20260509184326 57 286 0.0 0.0 0.01 0.01 0.01 84 1010.6
20260509183817 57 315 0.0 0.0 0.01 0.01 0.01 84 1010.6
20260509183316 57 315 0.0 0.0 0.01 0.01 0.01 84 1010.7
20260509182815 57 315 0.0 1.0 0.01 0.01 0.01 83 1010.6
20260509181814 58 341 0.0 9.0 0.01 0.01 0.01 82 1010.8
20260509180822 59 313 0.0 4.0 0.01 0.01 0.01 82 1011.1
20260509180319 59 311 0.0 3.0 0.01 0.01 0.01 83 1011.0
20260509175833 60 331 0.0 4.0 0.01 0.01 0.01 83 1011.0
20260509175323 60 294 0.0 4.0 0.01 0.01 0.01 82 1011.0
20260509174809 60 317 0.0 9.0 0.00 0.00 0.00 80 1011.1
20260509174323 61 302 0.0 9.0 0.00 0.00 0.00 76 1011.1
20260509172834 63 345 0.0 4.0 0.00 0.00 0.00 68 1010.5
20260509172325 64 300 0.0 0.0 0.00 0.00 0.00 69 1010.5
20260509171815 64 327 0.0 3.0 0.00 0.00 0.00 68 1010.4
20260509171318 64 203 0.0 3.0 0.00 0.00 0.00 68 1010.4
20260509170831 64 314 0.0 0.0 0.00 0.00 0.00 68 1010.4
20260509170318 64 283 0.0 1.0 0.00 0.00 0.00 69 1010.6
20260509165818 64 223 0.0 2.0 0.00 0.00 0.00 69 1010.7
20260509165312 63 251 0.0 3.0 0.00 0.00 0.00 69 1010.6
20260509164825 63 325 0.0 3.0 0.00 0.00 0.00 69 1010.6
20260509164318 63 221 0.0 3.0 0.00 0.00 0.00 69 1010.6
20260509163807 63 346 0.0 6.0 0.00 0.00 0.00 71 1010.6
20260509163329 63 304 0.0 6.0 0.00 0.00 0.00 69 1010.7
20260509162326 63 286 0.0 0.0 0.00 0.00 0.00 69 1010.9
20260509161310 63 309 0.0 4.0 0.00 0.00 0.00 69 1011.1
20260509160306 63 221 0.0 1.0 0.00 0.00 0.00 70 1011.0
20260509155314 62 277 0.0 2.0 0.00 0.00 0.00 71 1011.2
20260509154323 62 231 0.0 0.0 0.00 0.00 0.00 71 1011.5
20260509153833 62 236 0.0 3.0 0.00 0.00 0.00 72 1011.3
20260509153313 62 287 0.0 3.0 0.00 0.00 0.00 72 1011.4
20260509152821 61 242 1.0 3.0 0.00 0.00 0.00 74 1011.4
20260509152325 61 342 0.0 0.0 0.00 0.00 0.00 74 1011.5
20260509151818 61 192 0.0 0.0 0.00 0.00 0.00 76 1011.5
20260509151315 60 284 0.0 4.0 0.00 0.00 0.00 75 1011.4
20260509150825 60 296 0.0 4.0 0.00 0.00 0.00 76 1011.4
20260509150313 60 207 0.0 1.0 0.00 0.00 0.00 78 1011.6
20260509145829 60 279 0.0 1.0 0.00 0.00 0.00 77 1011.7
20260509145323 59 272 0.0 3.0 0.00 0.00 0.00 78 1011.8
20260509144312 59 266 0.0 0.0 0.00 0.00 0.00 78 1011.5
20260509143825 59 266 0.0 1.0 0.00 0.00 0.00 79 1011.6
20260509143321 58 266 0.0 1.0 0.00 0.00 0.00 79 1011.7